Temp
46 47 47 47 47 47 46 45 45 45 44 44 44 43 43 43 43 42 42 42 42 42 42 42 41 40 40 39 39 40 39 39 40 40 38 38 38 37 37 37 38 39
45 46 46 46 46 45 45 45 45 45 45 44 45 44 44 43 43 42 41 41 41 41 42 41 41 40 39 39 38 38 38 39 38 38 37 37 38 37 37 37 37 38
44 44 44 44 45 44 44 43 44 45 45 45 44 44 43 43 42 41 41 41 41 41 41 40 40 40 39 39 38 39 38 38 38 37 37 37 37 37 38 36 37 35
43 43 43 43 44 43 43 42 42 43 43 42 43 43 42 41 41 40 40 39 40 40 40 40 39 39 39 39 38 39 39 38 39 37 37 37 37 37 36 36 36 35
41 41 41 42 42 42 42 41 41 42 42 42 42 41 41 40 40 39 39 39 40 39 39 39 39 39 39 38 38 38 38 38 38 36 37 36 36 36 35 35 35 34
40 40 41 41 41 41 41 40 41 41 41 40 41 40 41 40 40 39 39 39 39 39 39 39 38 38 38 38 38 38 38 38 37 35 36 36 35 35 34 34 34 34
40 40 40 41 41 41 41 41 41 41 41 41 41 40 40 39 40 39 39 39 39 39 39 38 38 37 37 37 37 38 38 38 36 35 35 36 34 33 34 34 34 34
39 39 39 40 40 40 40 41 41 41 41 40 40 40 40 40 40 39 39 39 39 39 39 38 38 38 37 37 37 37 37 37 35 34 35 35 33 32 33 33 34 33
39 39 39 39 39 40 40 41 42 42 41 40 41 41 40 40 40 40 39 39 39 39 38 38 38 38 38 37 37 37 37 36 35 34 35 34 32 32 32 33 33 33
40 40 39 39 39 40 40 41 41 42 41 40 41 41 40 39 40 40 39 39 38 38 38 38 37 38 37 37 37 37 37 36 35 35 35 35 33 33 32 32 32 32
41 40 39 39 39 40 40 41 41 41 42 41 41 41 40 39 38 39 39 39 38 38 38 38 37 37 37 37 37 38 38 38 36 35 35 35 35 34 33 32 32 32
40 40 41 40 40 40 40 41 41 41 41 41 41 41 41 40 39 39 39 39 39 39 39 38 38 38 37 37 37 37 38 38 37 36 35 36 35 35 34 33 32 32
39 39 40 40 40 41 41 41 41 41 41 41 41 40 40 40 39 39 39 39 39 39 39 39 38 38 38 37 37 37 37 37 37 36 36 36 36 35 34 33 34 34
38 38 39 39 39 40 40 40 40 40 40 41 40 39 39 40 40 38 39 39 39 39 39 39 38 38 38 38 37 37 37 37 37 36 36 36 36 35 35 34 34 34
38 38 38 38 38 38 38 39 39 39 40 40 40 39 39 39 39 39 38 38 38 38 38 38 38 38 38 38 37 37 37 37 36 36 36 35 35 34 34 33 33 34
37 37 37 37 37 37 37 38 38 38 38 37 38 38 39 39 38 38 38 37 37 37 37 38 38 38 37 37 37 37 36 36 35 35 34 35 34 33 32 33 32 33
36 35 35 35 36 36 35 35 36 35 35 35 36 36 36 37 37 37 37 37 36 36 36 36 37 38 37 38 38 38 37 36 33 33 33 34 34 33 31 31 31 32
35 34 34 34 34 34 34 34 34 34 34 34 34 34 35 35 35 36 36 36 36 36 36 36 37 37 38 38 38 38 37 35 34 33 32 33 33 33 32 31 30 30
33 33 32 32 32 33 33 33 33 33 33 33 33 34 34 34 35 35 35 36 36 35 35 36 36 38 38 38 38 38 38 36 34 32 32 31 33 32 32 31 30 28
32 31 31 31 31 32 32 32 32 32 33 33 33 33 33 33 33 34 34 35 35 35 35 36 36 37 38 38 38 38 38 37 33 32 32 31 32 32 31 31 30 28
30 30 30 31 31 31 30 30 31 31 32 32 33 33 32 32 33 32 32 33 33 34 34 34 36 37 38 38 38 38 38 38 34 32 32 31 32 32 31 31 29 28
28 28 30 30 30 30 30 30 30 31 31 32 32 32 32 31 32 32 31 32 32 32 33 33 35 37 37 38 38 38 39 36 34 32 31 30 29 31 31 30 29 27
26 27 29 30 30 29 28 29 29 30 31 31 30 30 30 30 30 31 31 31 31 31 31 31 32 35 37 37 38 38 38 35 34 32 31 29 30 30 29 29 27 27
25 26 29 29 28 27 27 28 29 30 30 30 29 29 29 29 30 30 30 30 30 30 30 30 31 33 36 37 37 38 37 34 33 32 29 28 27 27 27 26 26 27
23 26 27 26 26 25 26 26 28 29 29 29 28 28 28 30 30 29 29 29 29 29 31 30 30 32 34 36 37 37 37 35 33 31 28 27 26 23 25 25 25 27
22 24 24 24 23 23 24 25 27 28 28 28 28 29 29 30 29 28 27 28 29 29 29 30 30 30 31 35 36 37 37 35 33 30 27 25 24 22 21 22 23 25
MSLP
1011.90 1011.94 1011.86 1011.90 1011.94 1011.90 1011.86 1011.86 1011.82 1011.86 1012.06 1012.30 1012.34 1012.46 1012.62 1012.82 1013.38 1013.78 1013.94 1014.34 1014.70 1015.02 1015.22 1015.42 1015.62 1015.86 1016.14 1016.54 1016.98 1017.46 1017.86 1018.18 1018.58 1018.94 1019.34 1019.66 1019.82 1020.06 1020.30 1020.50 1020.66 1020.62
1011.94 1012.10 1012.18 1012.22 1012.18 1012.22 1012.26 1012.34 1012.26 1012.06 1011.90 1011.90 1011.98 1012.22 1012.58 1012.98 1013.18 1013.54 1013.82 1014.06 1014.38 1014.62 1014.98 1015.34 1015.62 1015.82 1015.98 1016.18 1016.50 1016.86 1017.30 1017.70 1017.94 1018.38 1018.74 1019.06 1019.22 1019.62 1019.70 1019.98 1020.18 1020.58
1011.90 1011.94 1011.98 1012.02 1012.10 1012.26 1012.34 1012.46 1012.50 1012.42 1012.26 1012.10 1012.10 1012.14 1012.34 1012.66 1013.06 1013.38 1013.70 1013.94 1014.14 1014.42 1014.78 1015.14 1015.54 1015.78 1016.02 1016.22 1016.42 1016.54 1016.70 1017.02 1017.30 1017.82 1018.10 1018.34 1018.70 1019.02 1019.22 1019.70 1019.98 1020.26
1011.70 1011.78 1011.86 1011.94 1012.02 1012.02 1012.14 1012.26 1012.30 1012.30 1012.30 1012.34 1012.26 1012.18 1012.14 1012.30 1012.66 1013.10 1013.42 1013.74 1013.94 1014.26 1014.58 1014.98 1015.22 1015.58 1015.78 1015.98 1016.26 1016.34 1016.42 1016.62 1016.70 1017.26 1017.58 1017.94 1018.26 1018.46 1018.86 1019.30 1019.62 1020.06
1011.70 1011.70 1011.78 1011.86 1011.90 1011.94 1011.98 1011.98 1011.90 1011.86 1011.86 1011.78 1011.94 1012.14 1012.34 1012.42 1012.50 1012.82 1013.18 1013.46 1013.66 1013.94 1014.22 1014.50 1014.90 1015.18 1015.46 1015.66 1015.82 1015.98 1016.22 1016.46 1016.82 1017.14 1017.30 1017.54 1017.90 1018.18 1018.54 1018.90 1019.22 1019.54
1011.58 1011.54 1011.50 1011.54 1011.58 1011.70 1011.78 1011.74 1011.58 1011.50 1011.38 1011.42 1011.30 1011.54 1011.74 1012.10 1012.38 1012.42 1012.54 1012.94 1013.26 1013.50 1013.74 1014.06 1014.34 1014.62 1014.98 1015.26 1015.58 1015.58 1015.74 1016.06 1016.42 1016.86 1017.02 1017.22 1017.74 1018.10 1018.30 1018.54 1018.74 1019.02
1011.50 1011.38 1011.22 1011.26 1011.30 1011.42 1011.50 1011.50 1011.50 1011.42 1011.26 1011.06 1011.22 1011.22 1011.38 1011.62 1011.78 1012.02 1012.26 1012.34 1012.62 1012.94 1013.26 1013.54 1013.86 1014.10 1014.42 1014.78 1015.06 1015.14 1015.30 1015.54 1016.02 1016.38 1016.50 1016.82 1017.34 1017.86 1018.10 1018.22 1018.26 1018.42
1011.54 1011.46 1011.30 1011.30 1011.30 1011.30 1011.30 1011.30 1011.34 1011.30 1011.18 1011.26 1011.06 1010.98 1011.18 1011.18 1011.42 1011.66 1011.90 1012.10 1012.18 1012.22 1012.50 1012.90 1013.22 1013.54 1013.82 1014.10 1014.34 1014.62 1014.86 1015.14 1015.50 1015.78 1015.94 1016.22 1016.78 1017.10 1017.38 1017.62 1017.82 1018.06
1011.66 1011.42 1011.34 1011.30 1011.26 1011.18 1011.06 1011.02 1011.02 1010.94 1010.94 1010.90 1010.78 1010.82 1011.02 1011.06 1011.18 1011.42 1011.54 1011.74 1011.82 1011.82 1011.94 1012.22 1012.54 1012.94 1013.22 1013.46 1013.62 1013.78 1013.98 1014.34 1014.62 1014.90 1014.98 1015.34 1015.90 1016.06 1016.46 1016.94 1017.46 1017.54
1011.62 1011.46 1011.38 1011.26 1011.18 1011.02 1010.90 1010.82 1010.66 1010.54 1010.54 1010.46 1010.38 1010.46 1010.58 1010.78 1010.90 1010.98 1011.26 1011.38 1011.42 1011.54 1011.66 1011.78 1012.02 1012.30 1012.70 1012.94 1013.02 1013.18 1013.34 1013.54 1013.74 1014.02 1014.06 1014.26 1014.62 1015.10 1015.78 1016.18 1016.26 1016.82
1011.74 1011.50 1011.38 1011.18 1011.06 1010.82 1010.62 1010.42 1010.30 1010.18 1010.10 1010.02 1010.02 1009.98 1010.06 1010.30 1010.46 1010.66 1010.82 1010.90 1010.94 1011.02 1011.26 1011.38 1011.38 1011.58 1011.82 1012.18 1012.54 1012.78 1012.86 1013.06 1013.34 1013.46 1013.46 1013.46 1013.78 1014.10 1014.58 1015.06 1015.46 1015.54
1012.18 1011.70 1011.34 1011.06 1010.82 1010.54 1010.30 1010.06 1009.90 1009.82 1009.70 1009.58 1009.66 1009.58 1009.62 1009.74 1009.94 1010.22 1010.26 1010.26 1010.34 1010.46 1010.58 1010.74 1010.98 1011.18 1011.18 1011.22 1011.50 1011.94 1012.42 1012.66 1012.86 1013.10 1013.06 1013.06 1013.26 1013.54 1013.90 1014.14 1014.38 1014.82
1012.54 1012.22 1011.78 1011.26 1010.78 1010.42 1010.06 1009.78 1009.54 1009.34 1009.26 1009.22 1009.18 1009.14 1009.18 1009.38 1009.62 1009.78 1009.78 1009.86 1009.86 1010.02 1010.06 1010.26 1010.58 1010.82 1010.90 1011.02 1011.22 1011.38 1011.58 1011.90 1012.22 1012.58 1012.74 1012.74 1012.70 1012.82 1013.22 1013.70 1014.02 1014.46
1012.70 1012.42 1012.06 1011.66 1011.18 1010.62 1010.14 1009.66 1009.34 1009.10 1008.94 1008.82 1008.86 1008.90 1008.94 1009.02 1009.10 1009.22 1009.22 1009.38 1009.34 1009.54 1009.62 1009.90 1010.06 1010.14 1010.26 1010.46 1010.66 1010.90 1011.14 1011.30 1011.46 1011.78 1012.02 1012.14 1012.26 1012.54 1012.82 1013.14 1013.50 1013.86
1012.90 1012.42 1012.02 1011.62 1011.18 1010.70 1010.14 1009.70 1009.30 1008.98 1008.74 1008.58 1008.54 1008.54 1008.62 1008.62 1008.66 1008.78 1008.90 1008.98 1009.06 1009.18 1009.30 1009.46 1009.46 1009.34 1009.42 1009.70 1010.06 1010.46 1010.74 1010.94 1011.06 1011.22 1011.42 1011.58 1011.78 1012.06 1012.30 1012.62 1012.98 1013.30
1013.18 1012.86 1012.38 1011.86 1011.22 1010.70 1010.30 1009.90 1009.50 1009.10 1008.78 1008.54 1008.38 1008.26 1008.26 1008.34 1008.42 1008.46 1008.46 1008.42 1008.66 1008.86 1008.94 1008.90 1008.66 1008.58 1008.74 1009.14 1009.46 1009.66 1010.06 1010.38 1010.86 1011.14 1011.22 1011.26 1011.38 1011.66 1012.02 1012.26 1012.46 1012.82
1013.26 1012.98 1012.66 1012.30 1011.82 1011.30 1010.66 1010.10 1009.66 1009.30 1008.94 1008.58 1008.30 1008.18 1008.10 1008.10 1008.10 1008.02 1008.06 1008.18 1008.22 1008.22 1008.26 1008.18 1008.02 1007.98 1008.34 1008.82 1009.10 1009.34 1009.66 1009.98 1010.22 1010.54 1011.02 1011.18 1011.18 1011.26 1011.46 1011.82 1012.26 1012.70
1013.22 1012.94 1012.70 1012.38 1012.02 1011.66 1011.22 1010.66 1010.06 1009.46 1008.98 1008.62 1008.38 1008.14 1007.98 1007.90 1007.86 1007.78 1007.74 1007.78 1007.82 1007.82 1007.78 1007.58 1007.54 1007.62 1007.98 1008.18 1008.42 1008.82 1009.18 1009.50 1009.90 1010.14 1010.42 1010.70 1010.86 1011.06 1011.34 1011.78 1012.18 1012.58
1013.10 1012.74 1012.38 1012.06 1011.82 1011.54 1011.14 1010.66 1010.14 1009.66 1009.06 1008.62 1008.34 1008.10 1007.94 1007.86 1007.66 1007.54 1007.38 1007.38 1007.42 1007.34 1007.26 1007.18 1007.10 1007.02 1007.30 1007.54 1007.86 1008.22 1008.62 1009.14 1009.50 1009.70 1009.86 1009.94 1010.10 1010.42 1010.74 1011.18 1011.78 1012.34
1012.98 1012.66 1012.22 1011.82 1011.54 1011.30 1010.94 1010.50 1010.06 1009.58 1009.18 1008.82 1008.46 1008.14 1007.98 1007.70 1007.46 1007.26 1007.06 1006.98 1006.98 1006.94 1006.82 1006.66 1006.54 1006.54 1006.82 1007.06 1007.34 1007.66 1008.02 1008.46 1008.90 1009.18 1009.22 1009.18 1009.18 1009.30 1009.74 1010.22 1010.70 1011.34
1012.90 1012.58 1012.18 1011.74 1011.46 1011.22 1010.90 1010.50 1010.02 1009.50 1009.06 1008.66 1008.34 1008.06 1007.74 1007.42 1007.18 1006.98 1006.70 1006.58 1006.54 1006.58 1006.54 1006.30 1006.06 1006.26 1006.46 1006.54 1006.78 1007.10 1007.50 1007.94 1008.50 1008.86 1008.90 1008.78 1008.70 1008.74 1008.94 1009.26 1009.82 1010.46
1013.18 1012.62 1012.06 1011.62 1011.30 1011.02 1010.82 1010.42 1009.90 1009.46 1008.98 1008.42 1008.14 1007.78 1007.50 1007.22 1006.90 1006.70 1006.42 1006.22 1006.10 1006.14 1006.14 1005.90 1005.82 1005.98 1006.06 1006.18 1006.42 1006.70 1007.14 1007.58 1007.94 1008.34 1008.50 1008.54 1008.54 1008.58 1008.74 1009.06 1009.58 1010.10
1013.62 1013.06 1012.14 1011.54 1011.26 1011.06 1010.78 1010.38 1009.90 1009.38 1008.94 1008.54 1008.18 1007.74 1007.38 1007.02 1006.66 1006.34 1006.06 1005.98 1005.82 1005.82 1005.82 1005.62 1005.58 1005.66 1005.74 1005.82 1005.98 1006.26 1006.74 1007.06 1007.42 1007.78 1007.98 1008.06 1007.98 1008.06 1008.30 1008.66 1009.10 1009.54
1013.94 1013.26 1012.30 1011.70 1011.54 1011.30 1010.86 1010.38 1009.94 1009.46 1009.06 1008.62 1008.34 1007.66 1007.18 1006.70 1006.38 1006.10 1005.86 1005.70 1005.58 1005.42 1005.30 1005.26 1005.14 1005.34 1005.50 1005.54 1005.70 1005.90 1006.06 1006.50 1006.86 1007.22 1007.38 1007.62 1007.82 1008.10 1008.42 1008.74 1009.02 1009.30
1013.90 1013.14 1012.46 1012.06 1011.70 1011.26 1010.90 1010.34 1009.74 1009.34 1008.82 1008.54 1008.18 1007.62 1007.02 1006.42 1006.06 1005.78 1005.46 1005.26 1005.14 1005.06 1004.94 1004.90 1004.82 1005.06 1005.30 1005.38 1005.46 1005.58 1005.78 1006.02 1006.38 1006.78 1007.02 1007.18 1007.54 1008.06 1008.38 1008.70 1009.06 1009.22
1013.70 1013.10 1012.46 1012.22 1011.86 1011.38 1010.98 1010.42 1009.58 1008.86 1008.34 1007.98 1007.54 1007.14 1006.54 1005.98 1005.70 1005.42 1005.14 1004.78 1004.62 1004.66 1004.66 1004.54 1004.50 1004.62 1004.98 1005.10 1005.06 1005.14 1005.22 1005.50 1005.86 1006.26 1006.42 1006.90 1007.62 1008.06 1008.42 1008.74 1008.82 1009.02
Wind_Speed
6 5 6 6 6 5 5 6 6 7 7 6 8 8 9 8 9 11 11 9 9 9 9 9 10 10 10 10 11 9 9 9 9 8 9 9 8 9 9 9 8 8
6 6 6 6 5 5 5 5 6 7 7 8 7 7 6 7 8 8 9 10 9 10 10 9 9 9 9 10 10 10 9 10 11 8 10 12 9 9 10 10 9 6
6 7 7 8 7 6 6 5 6 6 6 7 7 6 7 7 7 8 9 9 8 8 9 8 8 9 9 9 9 10 10 10 11 10 10 11 9 9 8 9 7 10
7 7 7 7 6 7 6 6 7 7 7 6 8 8 8 8 9 9 9 10 8 9 8 9 9 9 10 10 10 9 9 10 9 10 10 8 8 9 9 8 8 7
6 7 6 6 6 6 6 7 9 9 9 10 7 7 8 8 9 9 9 9 9 9 9 10 10 10 9 9 10 9 9 9 9 10 10 10 8 9 8 9 10 10
7 7 7 8 8 7 8 9 10 10 11 10 11 9 9 10 9 9 10 10 9 9 9 9 10 9 10 10 9 10 9 10 9 11 10 10 9 8 7 9 10 11
8 7 9 8 8 8 9 10 9 9 10 10 7 10 10 10 10 11 11 10 11 11 11 11 11 11 10 9 10 11 9 9 9 12 12 10 9 11 9 10 11 11
9 7 8 7 8 9 10 10 10 10 9 7 10 9 10 11 12 11 11 10 11 12 11 11 11 11 11 10 12 12 11 10 10 12 12 11 11 12 12 10 11 12
9 9 8 8 9 9 10 11 11 11 9 10 10 9 9 10 10 10 11 11 11 11 12 11 12 11 11 12 12 13 13 11 11 13 13 13 14 15 14 12 12 12
12 10 9 9 9 9 11 11 10 10 9 10 10 9 10 10 10 12 12 13 12 11 11 11 12 12 12 12 13 13 13 13 13 13 13 13 14 14 14 14 15 13
15 13 11 10 10 10 11 11 10 10 9 11 10 11 11 10 11 11 13 13 13 12 13 13 13 13 13 13 12 11 13 13 12 12 12 13 13 13 13 15 15 15
14 15 15 13 12 11 11 11 10 9 10 9 10 12 11 11 12 11 12 15 13 13 13 14 13 14 13 13 14 13 12 12 11 12 12 11 12 12 13 14 14 13
13 14 14 14 13 12 11 10 9 9 9 10 9 11 12 11 11 13 13 14 15 14 14 13 13 13 12 13 12 12 13 13 15 15 17 14 12 11 11 12 11 12
13 12 12 12 12 12 11 11 10 10 9 9 9 10 11 12 13 13 13 13 14 14 14 13 13 12 12 12 11 12 14 17 17 16 16 17 16 13 10 13 13 12
13 13 13 13 12 12 13 12 11 10 10 9 9 10 9 11 12 12 13 13 13 13 13 13 14 14 13 12 12 13 14 17 17 17 13 15 14 11 11 11 12 12
11 12 13 15 15 15 13 13 12 12 10 9 10 10 10 10 10 12 13 14 13 13 13 13 14 13 15 21 16 14 17 14 14 15 14 11 12 10 11 11 12 11
10 10 11 13 13 14 14 14 13 11 10 9 9 8 10 10 11 12 12 12 13 14 15 14 13 13 18 19 23 22 16 15 14 14 13 12 11 10 11 12 10 10
10 10 10 11 11 11 11 12 12 12 11 10 9 9 9 8 11 12 12 12 11 13 14 14 14 14 17 21 23 24 20 15 13 12 13 11 9 9 9 9 10 10
11 11 11 11 10 11 10 10 11 11 11 11 10 9 8 8 11 11 12 11 12 14 14 14 14 14 20 22 23 25 25 19 13 13 13 14 15 12 10 11 10 9
12 12 12 12 12 12 11 11 11 11 10 9 9 9 8 9 9 11 11 12 12 14 14 14 15 13 19 22 23 25 25 22 15 15 15 15 16 13 10 12 13 12
13 13 13 12 12 11 12 12 12 11 11 9 8 9 9 9 10 10 10 10 11 11 12 13 13 14 18 22 23 25 26 22 15 14 13 14 12 9 11 13 12 11
14 15 14 12 12 12 13 13 12 12 13 11 9 9 8 8 8 8 10 10 11 11 12 14 11 13 19 21 23 24 26 17 15 15 14 13 12 11 10 9 10 12
14 15 15 14 13 14 14 13 13 13 12 10 10 10 9 9 9 9 9 9 10 10 12 12 12 13 18 21 23 25 21 14 14 13 13 14 14 12 12 10 10 13
13 14 14 14 14 13 14 14 13 12 11 9 10 11 10 10 9 9 9 9 10 11 11 12 13 11 17 20 23 26 21 15 13 13 14 13 9 9 8 7 10 22
12 13 13 13 14 15 14 16 14 12 12 10 10 10 11 10 8 9 9 8 9 11 10 13 12 10 15 20 23 25 21 14 12 12 13 12 8 6 7 7 10 17
12 13 12 11 13 15 15 15 14 13 13 12 11 9 10 9 8 8 10 10 9 9 10 11 12 10 11 20 23 25 26 16 12 12 14 12 7 8 7 7 8 10
Wind_Direction
273 275 260 254 250 254 242 214 202 199 198 197 202 202 200 195 184 189 196 192 195 196 193 188 185 179 181 171 171 172 179 182 183 178 179 177 184 174 179 181 180 188
272 273 272 280 272 260 257 232 227 219 210 203 204 197 201 188 198 189 194 196 191 197 191 190 189 187 179 175 171 173 176 180 185 173 177 181 184 177 184 180 177 166
273 263 256 251 250 253 244 240 232 232 228 226 214 202 198 195 187 191 195 198 196 193 191 188 187 188 184 182 177 184 183 180 184 175 179 184 175 182 179 171 174 175
272 260 259 259 256 251 231 219 222 223 227 222 214 214 201 188 186 185 193 196 195 193 189 186 191 187 188 186 181 192 188 190 184 165 177 177 182 175 171 170 168 169
265 271 264 263 257 249 233 221 221 219 215 217 214 203 197 186 182 181 187 192 193 192 188 190 189 193 189 190 186 187 187 187 177 177 178 178 178 174 170 167 171 174
267 252 257 252 246 244 240 232 228 220 217 212 211 197 200 192 194 195 187 186 191 192 192 189 191 191 187 189 187 198 184 186 179 175 181 179 175 181 168 177 170 175
270 264 254 245 247 239 241 241 240 232 227 222 201 208 193 195 197 195 193 192 187 192 192 190 190 188 186 184 192 195 191 186 172 182 182 183 169 179 181 178 180 175
290 272 262 257 246 242 240 241 241 237 234 223 219 215 199 204 203 198 198 195 195 195 192 192 192 193 187 188 192 193 191 190 183 183 187 179 175 181 181 183 177 176
308 293 281 265 255 250 244 240 239 237 226 224 224 218 210 211 205 200 199 199 202 202 197 193 192 191 190 193 196 193 190 190 187 187 188 180 183 187 180 175 177 184
335 316 297 282 269 260 254 248 243 239 227 228 226 217 212 212 209 208 204 204 207 204 201 198 193 194 194 200 200 197 197 195 188 190 191 189 186 178 178 180 183 176
344 339 324 303 283 275 268 261 251 244 235 230 225 224 217 210 212 208 210 208 210 205 203 204 202 196 194 195 199 203 205 202 196 193 194 192 187 185 181 181 180 186
347 344 341 330 314 297 283 273 264 254 246 238 226 230 223 216 213 210 212 213 212 210 207 208 205 203 203 198 196 197 202 205 201 200 202 196 191 191 185 186 183 179
347 344 339 336 330 320 307 295 281 267 253 248 232 231 229 224 217 217 218 218 218 214 213 208 206 206 207 206 202 199 199 200 204 205 206 205 201 192 185 186 185 182
341 337 337 334 330 326 319 309 298 288 272 259 245 239 234 230 224 220 221 218 221 217 217 211 209 210 208 207 203 201 205 208 206 206 206 208 206 199 189 188 188 184
336 336 335 335 332 332 332 327 318 303 290 275 259 250 241 236 231 226 226 223 222 219 218 213 215 214 210 204 200 204 207 210 210 209 204 207 204 194 189 185 187 187
332 332 333 334 336 337 334 329 324 317 304 290 272 257 250 242 237 230 227 226 222 221 219 217 220 219 216 210 204 203 205 208 209 212 210 206 203 194 193 192 189 186
328 328 328 329 329 328 330 330 326 320 311 297 284 268 256 248 236 235 231 228 225 221 220 221 223 223 215 209 209 207 204 207 207 208 208 210 210 201 197 189 185 183
325 323 324 321 323 322 321 320 320 319 312 302 293 281 263 251 244 240 237 231 230 229 227 226 227 220 211 211 209 208 204 205 207 207 204 205 206 202 198 186 184 178
325 326 322 322 322 321 317 315 315 314 313 310 297 283 278 260 250 244 241 236 230 232 232 229 231 212 211 211 209 208 205 200 209 207 205 206 205 200 187 184 177 175
326 323 322 321 322 321 320 318 317 314 307 300 295 291 275 264 255 247 243 238 234 234 236 235 232 221 213 211 209 207 205 199 210 206 209 208 205 198 183 182 180 176
328 324 318 318 318 319 319 317 315 312 309 303 299 289 282 270 260 256 247 241 240 237 241 240 236 222 215 213 210 206 206 201 208 211 214 214 210 195 186 187 179 176
326 320 315 315 318 319 318 315 315 314 313 309 302 293 278 271 268 259 256 248 240 239 240 244 242 221 219 215 212 209 206 205 209 211 215 215 212 205 188 180 174 175
322 315 311 314 319 319 315 314 314 312 308 306 298 290 284 275 268 258 255 253 247 241 241 245 246 229 222 217 214 210 205 208 210 212 216 214 212 206 186 178 170 176
313 305 303 312 315 312 311 308 308 301 297 299 291 289 283 273 265 265 255 249 247 243 235 241 242 231 223 220 216 211 204 206 207 210 214 212 206 179 181 172 174 182
306 300 302 307 309 310 312 308 304 301 296 293 283 274 270 271 266 262 261 249 244 242 236 236 243 235 224 225 219 214 209 209 208 210 212 211 194 173 173 168 178 187
302 298 297 300 304 306 307 304 301 302 297 294 287 278 276 270 261 257 258 258 247 243 241 235 239 234 223 226 222 217 211 208 207 205 210 203 183 177 162 180 176 179